DAL24 KSYR-KORD

Flight info

Callsign DAL24
Flight time N/A
Altitude 38000
Route SYR DINES YXU FNT WYNDE2
Aircraft A20N/M-SDE2E3FGHIRWXY/LB1

Departure

Time 2026-04-26 19:35
Airport Syracuse Hancock International Airport (KSYR)

Arrival

Time N/A
Airport Chicago O'Hare International Airport (KORD)
Time Latitude Longitude Altitude Speed Heading
2026-04-26 18:51 43.11447 -76.11024 423 ft 0 kts 343°
2026-04-26 19:08 43.11446 -76.11023 423 ft 2 kts 343°
2026-04-26 19:08 43.11430 -76.11017 416 ft 2 kts 343°
2026-04-26 19:08 43.11415 -76.11012 414 ft 2 kts
2026-04-26 19:09 43.11401 -76.11022 415 ft 2 kts 54°
2026-04-26 19:09 43.11396 -76.11034 413 ft 0 kts 86°
2026-04-26 19:13 43.11397 -76.11024 412 ft 3 kts 86°
2026-04-26 19:13 43.11398 -76.10972 421 ft 8 kts 88°
2026-04-26 19:13 43.11400 -76.10918 423 ft 1 kts 88°
2026-04-26 19:14 43.11401 -76.10885 422 ft 6 kts 88°
2026-04-26 19:14 43.11401 -76.10864 422 ft 4 kts 92°
2026-04-26 19:14 43.11401 -76.10862 422 ft 0 kts 92°
2026-04-26 19:15 43.11401 -76.10855 422 ft 3 kts 87°
2026-04-26 19:15 43.11404 -76.10806 421 ft 7 kts 88°
2026-04-26 19:15 43.11373 -76.10744 421 ft 9 kts 155°
2026-04-26 19:16 43.11314 -76.10733 412 ft 8 kts 178°
2026-04-26 19:16 43.11255 -76.10729 423 ft 9 kts 177°
2026-04-26 19:16 43.11184 -76.10724 421 ft 12 kts 178°
2026-04-26 19:16 43.11094 -76.10720 421 ft 14 kts 178°
2026-04-26 19:17 43.11012 -76.10667 424 ft 14 kts 109°
2026-04-26 19:17 43.11014 -76.10515 420 ft 18 kts 88°
2026-04-26 19:17 43.11016 -76.10418 410 ft 0 kts 88°
2026-04-26 19:18 43.11017 -76.10410 410 ft 3 kts 87°
2026-04-26 19:19 43.11019 -76.10353 413 ft 8 kts 87°
2026-04-26 19:19 43.11022 -76.10257 418 ft 11 kts 87°
2026-04-26 19:19 43.11026 -76.10143 418 ft 13 kts 87°
2026-04-26 19:19 43.11029 -76.10010 416 ft 15 kts 92°
2026-04-26 19:20 43.11000 -76.09929 414 ft 0 kts 133°
2026-04-26 19:20 43.10995 -76.09922 414 ft 3 kts 133°
2026-04-26 19:20 43.10973 -76.09890 415 ft 6 kts 133°
2026-04-26 19:21 43.10940 -76.09841 417 ft 8 kts 134°
2026-04-26 19:21 43.10901 -76.09788 416 ft 8 kts 135°
2026-04-26 19:21 43.10860 -76.09729 420 ft 9 kts 134°
2026-04-26 19:21 43.10808 -76.09655 412 ft 12 kts 134°
2026-04-26 19:22 43.10767 -76.09597 420 ft 13 kts 134°
2026-04-26 19:22 43.10697 -76.09553 417 ft 10 kts 211°
2026-04-26 19:22 43.10682 -76.09643 415 ft 12 kts 264°
2026-04-26 19:22 43.10677 -76.09776 417 ft 16 kts 267°
2026-04-26 19:23 43.10672 -76.09936 417 ft 18 kts 267°
2026-04-26 19:23 43.10666 -76.10105 419 ft 18 kts 267°
2026-04-26 19:23 43.10660 -76.10283 416 ft 20 kts 267°
2026-04-26 19:23 43.10654 -76.10472 418 ft 20 kts 267°
2026-04-26 19:24 43.10649 -76.10653 422 ft 18 kts 268°
2026-04-26 19:24 43.10643 -76.10835 420 ft 20 kts 267°
2026-04-26 19:24 43.10631 -76.11196 422 ft 16 kts 268°
2026-04-26 19:25 43.10688 -76.11295 421 ft 14 kts 345°
2026-04-26 19:25 43.10735 -76.11346 428 ft 13 kts 293°
2026-04-26 19:25 43.10733 -76.11525 423 ft 16 kts 267°
2026-04-26 19:25 43.10728 -76.11690 415 ft 18 kts 268°
2026-04-26 19:26 43.10722 -76.11863 427 ft 19 kts 268°
2026-04-26 19:26 43.10704 -76.12037 429 ft 19 kts 245°
2026-04-26 19:26 43.10675 -76.12193 430 ft 5 kts 264°
2026-04-26 19:28 43.10674 -76.12207 430 ft 3 kts 265°
2026-04-26 19:29 43.10672 -76.12253 430 ft 6 kts 267°
2026-04-26 19:29 43.10670 -76.12326 430 ft 9 kts 268°
2026-04-26 19:29 43.10668 -76.12417 424 ft 10 kts 268°
2026-04-26 19:29 43.10673 -76.12508 425 ft 10 kts 293°
2026-04-26 19:30 43.10725 -76.12546 426 ft 0 kts 354°
2026-04-26 19:31 43.10730 -76.12547 430 ft 2 kts 354°
2026-04-26 19:31 43.10756 -76.12549 431 ft 5 kts 358°
2026-04-26 19:31 43.10799 -76.12535 424 ft 7 kts 25°
2026-04-26 19:32 43.10824 -76.12477 433 ft 0 kts 87°
2026-04-26 19:34 43.10824 -76.12476 433 ft 1 kts 87°
2026-04-26 19:34 43.10832 -76.12270 422 ft 55 kts 87°
2026-04-26 19:34 43.10861 -76.11435 428 ft 116 kts 88°
2026-04-26 19:35 43.10908 -76.10105 431 ft 160 kts 86°
2026-04-26 19:35 43.10959 -76.08693 1091 ft 144 kts 86°
2026-04-26 19:35 43.11013 -76.07262 1443 ft 156 kts 85°
2026-04-26 19:35 43.11068 -76.05771 2015 ft 155 kts 83°
2026-04-26 19:36 43.11130 -76.04247 2416 ft 169 kts 84°
2026-04-26 19:36 43.11175 -76.03141 2640 ft 181 kts 84°
2026-04-26 19:36 43.11277 -76.00669 3207 ft 207 kts 84°
2026-04-26 19:36 43.11360 -75.98611 3662 ft 226 kts 85°
2026-04-26 19:37 43.11418 -75.96401 4134 ft 236 kts 88°
2026-04-26 19:37 43.11453 -75.94076 4165 ft 260 kts 88°
2026-04-26 19:37 43.11486 -75.91593 3986 ft 257 kts 88°
2026-04-26 19:37 43.11508 -75.89174 3991 ft 254 kts 88°
2026-04-26 19:38 43.11519 -75.86720 4089 ft 261 kts 88°
2026-04-26 19:38 43.11536 -75.84227 4830 ft 261 kts 88°
2026-04-26 19:38 43.11560 -75.81779 6023 ft 256 kts 88°
2026-04-26 19:38 43.11582 -75.79334 6893 ft 260 kts 88°
2026-04-26 19:39 43.11596 -75.76798 7629 ft 269 kts 88°
2026-04-26 19:39 43.11595 -75.74216 8447 ft 275 kts 88°
2026-04-26 19:39 43.11577 -75.71574 9265 ft 280 kts 88°
2026-04-26 19:39 43.11545 -75.68880 10070 ft 286 kts 88°
2026-04-26 19:40 43.11499 -75.66095 10603 ft 302 kts 88°
2026-04-26 19:40 43.11450 -75.63111 10856 ft 325 kts 88°
2026-04-26 19:40 43.11400 -75.59960 11228 ft 341 kts 88°
2026-04-26 19:40 43.11346 -75.56695 11990 ft 345 kts 88°
2026-04-26 19:41 43.11287 -75.53385 12696 ft 351 kts 88°
2026-04-26 19:41 43.11223 -75.50014 13399 ft 356 kts 88°
2026-04-26 19:41 43.11154 -75.46606 14084 ft 361 kts 88°
2026-04-26 19:41 43.11104 -75.44320 14498 ft 365 kts 88°
2026-04-26 19:42 43.10994 -75.39640 14899 ft 368 kts 88°
2026-04-26 19:42 43.10909 -75.36129 14966 ft 369 kts 88°
2026-04-26 19:42 43.10823 -75.32624 14969 ft 369 kts 88°
2026-04-26 19:42 43.10736 -75.29117 14971 ft 368 kts 88°
2026-04-26 19:43 43.10653 -75.25617 14969 ft 368 kts 86°
2026-04-26 19:43 43.10994 -75.22246 14969 ft 360 kts 67°
2026-04-26 19:43 43.12126 -75.19261 14969 ft 351 kts 48°
2026-04-26 19:43 43.13882 -75.17007 14969 ft 344 kts 30°
2026-04-26 19:44 43.16038 -75.15681 14968 ft 338 kts 12°
2026-04-26 19:44 43.18357 -75.15373 14967 ft 335 kts 354°
2026-04-26 19:44 43.20615 -75.16082 14966 ft 334 kts 337°
2026-04-26 19:44 43.22591 -75.17732 14967 ft 336 kts 320°
2026-04-26 19:45 43.24101 -75.20185 14966 ft 340 kts 302°
2026-04-26 19:45 43.24968 -75.23213 14972 ft 346 kts 284°
2026-04-26 19:45 43.25128 -75.25360 14969 ft 351 kts 272°
2026-04-26 19:45 43.25115 -75.25885 14968 ft 352 kts 270°
2026-04-26 19:46 43.24826 -75.29239 14969 ft 353 kts 266°
2026-04-26 19:46 43.24507 -75.32589 14969 ft 354 kts 266°
2026-04-26 19:46 43.24193 -75.35894 14969 ft 354 kts 266°
2026-04-26 19:46 43.23878 -75.39242 14968 ft 354 kts 266°
2026-04-26 19:47 43.23564 -75.42589 14958 ft 354 kts 266°
2026-04-26 19:47 43.23353 -75.44852 14966 ft 354 kts 266°
2026-04-26 19:47 43.22937 -75.49302 14970 ft 355 kts 266°
2026-04-26 19:47 43.22623 -75.52668 14969 ft 355 kts 266°
2026-04-26 19:48 43.22309 -75.56018 14970 ft 354 kts 266°
2026-04-26 19:48 43.21994 -75.59371 14971 ft 354 kts 266°
2026-04-26 19:48 43.21677 -75.62717 14972 ft 354 kts 266°
2026-04-26 19:48 43.21362 -75.66032 14974 ft 355 kts 266°
2026-04-26 19:49 43.21043 -75.69381 14974 ft 354 kts 266°
2026-04-26 19:49 43.20722 -75.72733 14977 ft 355 kts 266°
2026-04-26 19:49 43.20400 -75.76090 14978 ft 354 kts 266°
2026-04-26 19:49 43.20077 -75.79442 14968 ft 355 kts 266°
2026-04-26 19:50 43.19753 -75.82799 14982 ft 356 kts 266°
2026-04-26 19:50 43.19426 -75.86174 14982 ft 356 kts 266°
2026-04-26 19:50 43.19100 -75.89530 14984 ft 355 kts 266°
2026-04-26 19:50 43.18773 -75.92886 14990 ft 355 kts 266°
2026-04-26 19:51 43.18444 -75.96251 14985 ft 355 kts 266°
2026-04-26 19:51 43.18115 -75.99612 14989 ft 356 kts 266°
2026-04-26 19:51 43.17787 -76.02939 14988 ft 355 kts 266°
2026-04-26 19:51 43.17457 -76.06289 14988 ft 355 kts 266°
2026-04-26 19:52 43.17125 -76.09641 14987 ft 355 kts 266°
2026-04-26 19:52 43.16792 -76.12991 14989 ft 355 kts 266°
2026-04-26 19:52 43.16460 -76.16338 14984 ft 355 kts 267°
2026-04-26 19:52 43.16312 -76.19689 14987 ft 351 kts 275°
2026-04-26 19:53 43.16514 -76.23005 14990 ft 347 kts 283°
2026-04-26 19:53 43.17017 -76.26232 14993 ft 346 kts 287°
2026-04-26 19:53 43.17563 -76.29401 14994 ft 346 kts 287°
2026-04-26 19:53 43.18107 -76.32622 14992 ft 346 kts 287°
2026-04-26 19:54 43.18645 -76.35833 15005 ft 346 kts 287°
2026-04-26 19:54 43.19181 -76.39044 15004 ft 345 kts 287°
2026-04-26 19:54 43.19718 -76.42262 15005 ft 346 kts 287°
2026-04-26 19:54 43.20253 -76.45474 15010 ft 346 kts 287°
2026-04-26 19:55 43.20787 -76.48680 15012 ft 346 kts 287°
2026-04-26 19:55 43.21323 -76.51905 15009 ft 345 kts 287°
2026-04-26 19:55 43.21855 -76.55116 15010 ft 345 kts 287°
2026-04-26 19:55 43.22385 -76.58316 15008 ft 345 kts 287°
2026-04-26 19:56 43.22908 -76.61481 15011 ft 345 kts 287°
2026-04-26 19:56 43.23444 -76.64734 15014 ft 345 kts 286°
2026-04-26 19:56 43.23965 -76.67898 15018 ft 345 kts 286°
2026-04-26 19:56 43.24493 -76.71110 15020 ft 345 kts 286°
2026-04-26 19:57 43.25020 -76.74328 15016 ft 345 kts 286°
2026-04-26 19:57 43.25545 -76.77534 15023 ft 345 kts 286°
2026-04-26 19:57 43.26070 -76.80748 15029 ft 345 kts 286°
2026-04-26 19:57 43.26595 -76.83966 15034 ft 345 kts 286°
2026-04-26 19:58 43.27119 -76.87184 15022 ft 345 kts 286°
2026-04-26 19:58 43.27641 -76.90394 15020 ft 344 kts 286°
2026-04-26 19:58 43.28164 -76.93613 15019 ft 345 kts 286°
2026-04-26 19:58 43.28684 -76.96830 15019 ft 345 kts 286°
2026-04-26 19:59 43.29197 -77.00008 15017 ft 345 kts 286°
2026-04-26 19:59 43.29715 -77.03221 15014 ft 345 kts 286°
2026-04-26 19:59 43.30233 -77.06442 15016 ft 345 kts 286°
2026-04-26 19:59 43.30739 -77.09633 15017 ft 345 kts 284°
2026-04-26 20:00 43.31038 -77.12920 15014 ft 348 kts 277°
2026-04-26 20:00 43.31018 -77.16250 15016 ft 351 kts 270°
2026-04-26 20:00 43.30827 -77.19597 15008 ft 351 kts 270°
2026-04-26 20:00 43.30650 -77.22943 15001 ft 351 kts 270°
2026-04-26 20:01 43.30480 -77.26269 15018 ft 350 kts 270°
2026-04-26 20:01 43.30311 -77.29598 15022 ft 350 kts 270°
2026-04-26 20:01 43.30141 -77.32929 15022 ft 350 kts 270°
2026-04-26 20:01 43.29970 -77.36268 15025 ft 350 kts 270°
2026-04-26 20:02 43.29797 -77.39587 15028 ft 350 kts 270°
2026-04-26 20:02 43.29621 -77.42936 15031 ft 350 kts 270°
2026-04-26 20:02 43.29444 -77.46266 15021 ft 350 kts 270°
2026-04-26 20:02 43.29326 -77.48472 15023 ft 350 kts 270°
2026-04-26 20:03 43.29087 -77.52934 15016 ft 350 kts 270°
2026-04-26 20:03 43.28907 -77.56271 15016 ft 350 kts 270°
2026-04-26 20:03 43.28725 -77.59608 14998 ft 350 kts 270°
2026-04-26 20:03 43.28545 -77.62901 15014 ft 351 kts 270°
2026-04-26 20:04 43.28362 -77.66242 15014 ft 351 kts 270°
2026-04-26 20:04 43.28178 -77.69580 15016 ft 351 kts 270°
2026-04-26 20:04 43.27993 -77.72903 15017 ft 351 kts 270°
2026-04-26 20:04 43.27806 -77.76256 15018 ft 351 kts 270°
2026-04-26 20:05 43.27619 -77.79591 15017 ft 351 kts 270°
2026-04-26 20:05 43.27431 -77.82926 15026 ft 351 kts 270°
2026-04-26 20:05 43.27242 -77.86267 15023 ft 351 kts 270°
2026-04-26 20:05 43.27052 -77.89607 15029 ft 351 kts 270°
2026-04-26 20:06 43.26861 -77.92945 15022 ft 351 kts 270°
2026-04-26 20:06 43.26669 -77.96282 15008 ft 351 kts 269°
2026-04-26 20:06 43.26476 -77.99623 15020 ft 352 kts 269°
2026-04-26 20:06 43.26282 -78.02967 15010 ft 352 kts 269°
2026-04-26 20:07 43.26086 -78.06308 15020 ft 351 kts 269°
2026-04-26 20:07 43.25890 -78.09651 15008 ft 351 kts 269°
2026-04-26 20:07 43.25692 -78.12992 15014 ft 351 kts 269°
2026-04-26 20:07 43.25494 -78.16337 15010 ft 351 kts 269°
2026-04-26 20:08 43.25362 -78.18557 15015 ft 352 kts 269°
2026-04-26 20:08 43.25161 -78.21905 15015 ft 351 kts 269°
2026-04-26 20:08 43.24960 -78.25246 15016 ft 352 kts 269°
2026-04-26 20:08 43.24759 -78.28586 15014 ft 352 kts 269°
2026-04-26 20:09 43.24490 -78.33010 15011 ft 351 kts 269°
2026-04-26 20:09 43.24352 -78.35275 15017 ft 352 kts 269°
2026-04-26 20:09 43.24149 -78.38578 15018 ft 352 kts 269°
2026-04-26 20:09 43.23944 -78.41924 15012 ft 352 kts 269°
2026-04-26 20:10 43.23737 -78.45272 15015 ft 352 kts 269°
2026-04-26 20:10 43.23528 -78.48627 15008 ft 352 kts 269°
2026-04-26 20:10 43.23319 -78.51973 15012 ft 352 kts 269°
2026-04-26 20:10 43.23109 -78.55324 15005 ft 352 kts 269°
2026-04-26 20:11 43.22897 -78.58678 15014 ft 352 kts 269°
2026-04-26 20:11 43.22688 -78.61978 15004 ft 352 kts 269°
2026-04-26 20:11 43.22475 -78.65332 15004 ft 352 kts 269°
2026-04-26 20:12 43.22047 -78.72028 15014 ft 353 kts 268°
2026-04-26 20:12 43.21831 -78.75371 15002 ft 352 kts 268°
2026-04-26 20:12 43.21613 -78.78722 15000 ft 353 kts 268°
2026-04-26 20:12 43.21394 -78.82081 14992 ft 353 kts 268°
2026-04-26 20:13 43.21175 -78.85422 14994 ft 353 kts 268°
2026-04-26 20:13 43.20954 -78.88780 14994 ft 353 kts 268°
2026-04-26 20:13 43.20733 -78.92128 14975 ft 353 kts 268°
2026-04-26 20:13 43.20511 -78.95476 14993 ft 353 kts 268°
2026-04-26 20:14 43.20288 -78.98826 14995 ft 353 kts 268°
2026-04-26 20:14 43.20064 -79.02181 14991 ft 353 kts 268°
2026-04-26 20:14 43.19839 -79.05530 15006 ft 353 kts 268°
2026-04-26 20:14 43.19615 -79.08880 15007 ft 353 kts 267°
2026-04-26 20:15 43.19388 -79.12226 15006 ft 353 kts 267°
2026-04-26 20:15 43.19159 -79.15575 15007 ft 353 kts 267°
2026-04-26 20:15 43.18929 -79.18925 15006 ft 353 kts 267°
2026-04-26 20:15 43.18702 -79.22230 15007 ft 353 kts 267°
2026-04-26 20:16 43.18471 -79.25574 15003 ft 353 kts 267°
2026-04-26 20:16 43.18236 -79.28962 15007 ft 353 kts 267°
2026-04-26 20:16 43.18006 -79.32268 15008 ft 353 kts 267°
2026-04-26 20:16 43.17770 -79.35653 15011 ft 353 kts 267°
2026-04-26 20:17 43.17537 -79.38964 15011 ft 353 kts 267°
2026-04-26 20:17 43.17302 -79.42310 15012 ft 353 kts 267°
2026-04-26 20:17 43.17067 -79.45650 15016 ft 352 kts 267°
2026-04-26 20:17 43.16907 -79.47904 15019 ft 352 kts 266°
2026-04-26 20:18 43.16591 -79.52327 15020 ft 352 kts 266°
2026-04-26 20:18 43.16352 -79.55663 15024 ft 352 kts 266°
2026-04-26 20:18 43.16112 -79.58999 15026 ft 352 kts 266°
2026-04-26 20:18 43.15871 -79.62332 15026 ft 352 kts 267°
2026-04-26 20:19 43.15629 -79.65664 15030 ft 352 kts 267°
2026-04-26 20:19 43.15385 -79.69004 15015 ft 352 kts 267°
2026-04-26 20:19 43.15144 -79.72304 15011 ft 352 kts 266°
2026-04-26 20:19 43.14900 -79.75640 15009 ft 352 kts 266°
2026-04-26 20:20 43.14654 -79.78974 15010 ft 352 kts 266°
2026-04-26 20:20 43.14408 -79.82299 15005 ft 351 kts 266°
2026-04-26 20:20 43.14160 -79.85634 15006 ft 351 kts 266°
2026-04-26 20:20 43.13912 -79.88958 15006 ft 351 kts 266°
2026-04-26 20:21 43.13663 -79.92285 15006 ft 351 kts 266°
2026-04-26 20:21 43.13413 -79.95607 15006 ft 351 kts 266°
2026-04-26 20:21 43.13162 -79.98936 15006 ft 351 kts 266°
2026-04-26 20:21 43.12910 -80.02262 15006 ft 351 kts 266°
2026-04-26 20:22 43.12657 -80.05583 15005 ft 351 kts 266°
2026-04-26 20:22 43.12404 -80.08904 15007 ft 351 kts 266°
2026-04-26 20:22 43.12149 -80.12228 15007 ft 351 kts 266°
2026-04-26 20:22 43.11893 -80.15550 15008 ft 351 kts 266°
2026-04-26 20:23 43.11637 -80.18872 15008 ft 350 kts 266°
2026-04-26 20:23 43.11379 -80.22194 15008 ft 351 kts 266°
2026-04-26 20:23 43.11120 -80.25525 15008 ft 350 kts 266°
2026-04-26 20:23 43.10861 -80.28842 15011 ft 351 kts 266°
2026-04-26 20:24 43.10600 -80.32163 15004 ft 350 kts 266°
2026-04-26 20:24 43.10339 -80.35478 15005 ft 351 kts 266°
2026-04-26 20:24 43.10081 -80.38749 15006 ft 351 kts 266°
2026-04-26 20:24 43.09817 -80.42071 15005 ft 351 kts 266°
2026-04-26 20:25 43.09553 -80.45391 15006 ft 351 kts 266°
2026-04-26 20:25 43.09373 -80.47635 15006 ft 351 kts 266°
2026-04-26 20:25 43.09021 -80.52035 15006 ft 351 kts 266°
2026-04-26 20:25 43.08754 -80.55351 15003 ft 350 kts 266°
2026-04-26 20:26 43.08487 -80.58645 15003 ft 348 kts 266°
2026-04-26 20:26 43.08220 -80.61936 15003 ft 349 kts 266°
2026-04-26 20:26 43.07952 -80.65236 15003 ft 349 kts 266°
2026-04-26 20:26 43.07682 -80.68530 15002 ft 349 kts 266°
2026-04-26 20:27 43.07412 -80.71822 15000 ft 349 kts 266°
2026-04-26 20:27 43.07141 -80.75121 14999 ft 349 kts 266°
2026-04-26 20:27 43.06869 -80.78419 14998 ft 349 kts 266°
2026-04-26 20:27 43.06596 -80.81717 14997 ft 349 kts 266°
2026-04-26 20:28 43.06325 -80.84966 14995 ft 349 kts 266°
2026-04-26 20:28 43.06050 -80.88261 14993 ft 349 kts 266°
2026-04-26 20:28 43.05775 -80.91554 14984 ft 349 kts 265°
2026-04-26 20:28 43.05500 -80.94838 14992 ft 347 kts 265°
2026-04-26 20:29 43.05223 -80.98122 14991 ft 348 kts 265°
2026-04-26 20:29 43.04945 -81.01411 14988 ft 347 kts 265°
2026-04-26 20:29 43.04668 -81.04691 14987 ft 348 kts 265°
2026-04-26 20:29 43.04389 -81.07974 14987 ft 348 kts 265°
2026-04-26 20:30 43.04110 -81.11256 14985 ft 348 kts 265°
2026-04-26 20:30 43.03831 -81.14538 14988 ft 347 kts 265°
2026-04-26 20:30 43.03619 -81.17825 14987 ft 347 kts 269°
2026-04-26 20:30 43.03567 -81.21119 14988 ft 346 kts 271°
2026-04-26 20:31 43.03558 -81.24409 14988 ft 346 kts 271°
2026-04-26 20:31 43.03542 -81.27709 14987 ft 347 kts 271°
2026-04-26 20:31 43.03511 -81.30998 14988 ft 346 kts 270°
2026-04-26 20:31 43.03464 -81.34283 14991 ft 346 kts 270°
2026-04-26 20:32 43.03409 -81.37575 14991 ft 346 kts 270°
2026-04-26 20:32 43.03349 -81.40863 14991 ft 346 kts 270°
2026-04-26 20:32 43.03288 -81.44151 14991 ft 346 kts 270°
2026-04-26 20:32 43.03225 -81.47444 14995 ft 346 kts 270°
2026-04-26 20:33 43.03163 -81.50691 14995 ft 346 kts 270°
2026-04-26 20:33 43.03099 -81.53980 14997 ft 346 kts 270°
2026-04-26 20:33 43.03034 -81.57275 15000 ft 346 kts 270°
2026-04-26 20:33 43.02969 -81.60564 15000 ft 346 kts 270°
2026-04-26 20:34 43.02904 -81.63850 15000 ft 346 kts 270°
2026-04-26 20:34 43.02837 -81.67142 15002 ft 346 kts 269°
2026-04-26 20:34 43.02770 -81.70429 15002 ft 346 kts 269°
2026-04-26 20:34 43.02700 -81.73718 15001 ft 346 kts 269°
2026-04-26 20:35 43.02629 -81.77010 14998 ft 346 kts 269°
2026-04-26 20:35 43.02558 -81.80294 14999 ft 346 kts 269°
2026-04-26 20:35 43.02486 -81.83584 15002 ft 346 kts 269°
2026-04-26 20:35 43.02414 -81.86825 15002 ft 346 kts 269°
2026-04-26 20:36 43.02340 -81.90111 15001 ft 346 kts 269°
2026-04-26 20:36 43.02265 -81.93410 15000 ft 346 kts 269°
2026-04-26 20:36 43.02190 -81.96701 15000 ft 346 kts 269°
2026-04-26 20:36 43.02113 -81.99989 14999 ft 346 kts 269°
2026-04-26 20:37 43.02035 -82.03273 15001 ft 346 kts 269°
2026-04-26 20:37 43.01957 -82.06565 15000 ft 346 kts 269°
2026-04-26 20:37 43.01877 -82.09853 14999 ft 346 kts 269°
2026-04-26 20:37 43.01797 -82.13139 14999 ft 346 kts 269°
2026-04-26 20:38 43.01716 -82.16380 14997 ft 346 kts 269°
2026-04-26 20:38 43.01634 -82.19671 14997 ft 346 kts 269°
2026-04-26 20:38 43.01551 -82.22954 14996 ft 346 kts 269°
2026-04-26 20:38 43.01467 -82.26242 14997 ft 346 kts 269°
2026-04-26 20:39 43.01382 -82.29525 14998 ft 346 kts 269°
2026-04-26 20:39 43.01325 -82.31707 14997 ft 346 kts 269°
2026-04-26 20:39 43.01208 -82.36102 14997 ft 346 kts 269°
2026-04-26 20:39 43.01121 -82.39384 14997 ft 346 kts 269°
2026-04-26 20:40 43.01033 -82.42673 14997 ft 345 kts 268°
2026-04-26 20:40 43.00943 -82.45948 14997 ft 345 kts 268°
2026-04-26 20:40 43.00852 -82.49233 14997 ft 346 kts 268°
2026-04-26 20:40 43.00760 -82.52517 14997 ft 345 kts 268°
2026-04-26 20:41 43.00668 -82.55756 14995 ft 345 kts 268°
2026-04-26 20:41 43.00574 -82.59081 15000 ft 346 kts 268°
2026-04-26 20:41 43.00481 -82.62315 14998 ft 345 kts 268°
2026-04-26 20:41 43.00385 -82.65592 14995 ft 345 kts 268°
2026-04-26 20:42 43.00289 -82.68875 14997 ft 345 kts 268°
2026-04-26 20:42 43.00192 -82.72159 14995 ft 346 kts 268°
2026-04-26 20:42 43.00094 -82.75434 14991 ft 346 kts 268°
2026-04-26 20:42 42.99995 -82.78716 14990 ft 346 kts 268°
2026-04-26 20:43 42.99896 -82.81993 14987 ft 345 kts 268°
2026-04-26 20:43 42.99795 -82.85269 14985 ft 345 kts 268°
2026-04-26 20:43 42.99692 -82.88551 14980 ft 345 kts 268°
2026-04-26 20:43 42.99589 -82.91832 14976 ft 345 kts 268°
2026-04-26 20:44 42.99486 -82.95105 14976 ft 345 kts 268°
2026-04-26 20:44 42.99381 -82.98376 14972 ft 345 kts 268°
2026-04-26 20:44 42.99275 -83.01659 14971 ft 345 kts 268°
2026-04-26 20:44 42.99169 -83.04932 14970 ft 345 kts 268°
2026-04-26 20:45 42.99061 -83.08210 14972 ft 345 kts 268°
2026-04-26 20:45 42.98953 -83.11487 14972 ft 346 kts 268°
2026-04-26 20:45 42.98844 -83.14762 14972 ft 345 kts 268°
2026-04-26 20:45 42.98735 -83.18038 14976 ft 344 kts 267°
2026-04-26 20:46 42.98624 -83.21309 14968 ft 345 kts 267°
2026-04-26 20:46 42.98513 -83.24543 14968 ft 345 kts 267°
2026-04-26 20:46 42.98400 -83.27816 14969 ft 345 kts 267°
2026-04-26 20:46 42.98286 -83.31090 14972 ft 345 kts 267°
2026-04-26 20:47 42.98171 -83.34364 14971 ft 345 kts 267°
2026-04-26 20:47 42.98132 -83.35468 14969 ft 344 kts 267°
2026-04-26 20:47 42.97939 -83.40902 14970 ft 344 kts 267°
2026-04-26 20:47 42.97822 -83.44168 14970 ft 345 kts 267°
2026-04-26 20:48 42.97703 -83.47442 14970 ft 344 kts 267°
2026-04-26 20:48 42.97585 -83.50672 14971 ft 344 kts 267°
2026-04-26 20:48 42.97465 -83.53937 14968 ft 344 kts 267°
2026-04-26 20:48 42.97345 -83.57202 14968 ft 343 kts 266°
2026-04-26 20:49 42.97223 -83.60463 14972 ft 343 kts 266°
2026-04-26 20:49 42.97100 -83.63729 14970 ft 343 kts 266°
2026-04-26 20:49 42.96977 -83.66979 14968 ft 343 kts 266°
2026-04-26 20:49 42.96855 -83.70200 14967 ft 344 kts 266°
2026-04-26 20:50 42.96731 -83.73461 14971 ft 344 kts 266°
2026-04-26 20:50 42.96485 -83.76704 14969 ft 344 kts 262°
2026-04-26 20:50 42.96161 -83.79935 14969 ft 344 kts 262°
2026-04-26 20:50 42.95855 -83.83174 14970 ft 343 kts 262°
2026-04-26 20:51 42.95552 -83.86404 14970 ft 343 kts 262°
2026-04-26 20:51 42.95245 -83.89637 14968 ft 343 kts 262°
2026-04-26 20:51 42.94937 -83.92867 14969 ft 342 kts 262°
2026-04-26 20:51 42.94731 -83.94998 14965 ft 342 kts 262°
2026-04-26 20:52 42.94313 -83.99308 14963 ft 343 kts 262°
2026-04-26 20:52 42.94004 -84.02489 14960 ft 343 kts 262°
2026-04-26 20:52 42.93792 -84.04665 14959 ft 342 kts 262°
2026-04-26 20:52 42.93477 -84.07886 14961 ft 342 kts 262°
2026-04-26 20:53 42.93161 -84.11104 14959 ft 342 kts 262°
2026-04-26 20:53 42.92741 -84.15371 14959 ft 342 kts 262°
2026-04-26 20:53 42.92423 -84.18584 14959 ft 342 kts 262°
2026-04-26 20:53 42.92208 -84.20756 14960 ft 342 kts 262°
2026-04-26 20:54 42.91888 -84.23981 14958 ft 343 kts 262°
2026-04-26 20:54 42.91572 -84.27158 14961 ft 342 kts 262°
2026-04-26 20:54 42.91251 -84.30374 14962 ft 342 kts 261°
2026-04-26 20:54 42.90929 -84.33587 14963 ft 341 kts 261°
2026-04-26 20:55 42.90607 -84.36797 14960 ft 342 kts 261°
2026-04-26 20:55 42.90283 -84.40007 14961 ft 342 kts 261°
2026-04-26 20:55 42.89958 -84.43222 14958 ft 341 kts 261°
2026-04-26 20:55 42.89632 -84.46437 14959 ft 342 kts 261°
2026-04-26 20:56 42.89306 -84.49648 14961 ft 342 kts 261°
2026-04-26 20:56 42.88978 -84.52864 14957 ft 342 kts 261°
2026-04-26 20:56 42.88649 -84.56082 14956 ft 343 kts 261°
2026-04-26 20:56 42.88319 -84.59311 14963 ft 343 kts 261°
2026-04-26 20:57 42.87994 -84.62485 14962 ft 343 kts 261°
2026-04-26 20:57 42.87662 -84.65708 14960 ft 343 kts 261°
2026-04-26 20:57 42.87330 -84.68927 14962 ft 342 kts 261°
2026-04-26 20:57 42.86998 -84.72134 14958 ft 342 kts 261°
2026-04-26 20:58 42.86665 -84.75341 14956 ft 342 kts 261°
2026-04-26 20:58 42.86330 -84.78552 14957 ft 342 kts 261°
2026-04-26 20:58 42.85996 -84.81757 14955 ft 342 kts 261°
2026-04-26 20:58 42.85660 -84.84966 14957 ft 342 kts 261°
2026-04-26 20:59 42.85323 -84.88172 14952 ft 341 kts 261°
2026-04-26 20:59 42.84985 -84.91387 14951 ft 342 kts 261°
2026-04-26 20:59 42.84647 -84.94591 14951 ft 342 kts 261°
2026-04-26 20:59 42.84307 -84.97797 14943 ft 342 kts 261°
2026-04-26 21:00 42.83964 -85.01013 14777 ft 343 kts 260°
2026-04-26 21:00 42.83622 -85.04223 14533 ft 341 kts 260°
2026-04-26 21:00 42.83284 -85.07405 14313 ft 339 kts 260°
2026-04-26 21:00 42.83281 -85.07433 14303 ft 339 kts 260°
2026-04-26 21:03 42.83047 -85.09624 14136 ft 339 kts 260°
2026-04-26 21:03 42.82709 -85.12762 13893 ft 338 kts 260°
2026-04-26 21:04 42.82368 -85.15931 13638 ft 337 kts 260°
2026-04-26 21:04 42.82027 -85.19084 13370 ft 336 kts 260°
2026-04-26 21:04 42.81686 -85.22232 13101 ft 335 kts 260°
2026-04-26 21:04 42.81345 -85.25371 12852 ft 334 kts 260°
2026-04-26 21:05 42.81005 -85.28496 12592 ft 333 kts 259°
2026-04-26 21:05 42.80664 -85.31623 12330 ft 332 kts 259°
2026-04-26 21:05 42.80325 -85.34724 12077 ft 331 kts 259°
2026-04-26 21:05 42.79986 -85.37818 11830 ft 330 kts 259°
2026-04-26 21:06 42.79647 -85.40903 11575 ft 329 kts 259°
2026-04-26 21:06 42.79308 -85.43986 11330 ft 329 kts 259°
2026-04-26 21:06 42.78968 -85.47061 11135 ft 327 kts 259°
2026-04-26 21:06 42.78601 -85.50123 11120 ft 328 kts 255°
2026-04-26 21:07 42.78052 -85.53151 11506 ft 331 kts 254°
2026-04-26 21:07 42.77511 -85.56158 12425 ft 330 kts 254°
2026-04-26 21:07 42.76967 -85.59212 13291 ft 333 kts 254°
2026-04-26 21:07 42.76418 -85.62293 14100 ft 337 kts 255°
2026-04-26 21:08 42.75860 -85.65409 14649 ft 340 kts 255°
2026-04-26 21:08 42.75299 -85.68541 14852 ft 341 kts 255°
2026-04-26 21:08 42.74735 -85.71676 14921 ft 342 kts 255°
2026-04-26 21:08 42.74170 -85.74809 14925 ft 341 kts 255°
2026-04-26 21:09 42.73603 -85.77941 14921 ft 341 kts 255°
2026-04-26 21:09 42.73036 -85.81069 14912 ft 341 kts 255°
2026-04-26 21:09 42.72468 -85.84201 14912 ft 341 kts 255°
2026-04-26 21:09 42.71900 -85.87326 14911 ft 341 kts 255°
2026-04-26 21:10 42.71330 -85.90462 14907 ft 341 kts 254°
2026-04-26 21:10 42.70767 -85.93549 14908 ft 341 kts 254°
2026-04-26 21:10 42.70744 -85.93675 14907 ft 341 kts 254°